Location: Unspecified
(0.0000°N, 0.0000°E)
Time: 01:55:30
(UTC+02:00)

Ariane H10 - Visible Passes

Search period start: 28 May 2015 00:00
Search period end: 07 June 2015 00:00
Orbit: 438 x 35070 km, 4.3° (Epoch: 26 May)

Date Brightness Start Highest point End Pass type
(mag) Time Alt. Az. Time Alt. Az. Time Alt. Az.
28 May 7.6 00:35:19 11° E 00:35:19 11° E 00:37:00 10° E visible
28 May 7.6 00:35:21 11° E 00:35:21 11° E 09:34:12 10° E visible
28 May 2.1 20:44:43 10° W 20:49:20 46° S 20:50:57 20° ESE visible
30 May 6.4 04:24:43 66° W 04:34:49 90° N 14:00:14 10° E visible
31 May 7.3 01:08:29 23° E 01:08:29 23° E 10:18:45 10° E visible
31 May 2.1 21:21:05 10° WSW 21:23:58 39° SSW 21:23:58 39° SSW visible
02 Jun 6.6 04:57:52 49° W 05:22:27 88° N 14:35:34 10° E visible
03 Jun 7.1 01:41:37 37° E 01:41:37 37° E 10:59:27 10° E visible
03 Jun 4.0 21:56:19 10° WSW 21:57:01 16° WSW 21:57:01 16° WSW visible
03 Jun 4.0 21:56:20 10° WSW 21:56:57 15° WSW 21:56:57 15° WSW visible
05 Jun 6.5 05:30:59 34° W 06:32:16 86° N 15:10:32 10° E visible
06 Jun 6.8 02:14:44 52° E 02:14:44 52° E 11:38:00 10° E visible
